Location: Ladrillo (historical)
(32.8195°N, 117.2231°W)
Time: 23:49:48
(UTC+00:00)

Altair - Pass Details

Date: 06 March 2021
Orbit: 1501 x 1683 km, 47.2° (Epoch: 16 April)

Event Time Altitude Azimuth Distance (km) Brightness Sun altitude
Rises 03:56:37 0° 280° (W) 4,639 11.3 -27.4°
Reaches altitude 10° 04:00:02 10° 289° (WNW) 3,670 10.4 -28.1°
Maximum altitude 04:08:16 34° 352° (N) 2,317 8.5 -29.8°
Enters shadow 04:12:54 23° 37° (NE) 2,852 8.7 -30.7°
